Palestine, TX

5:58 PM CST on January 16, 2018 (GMT -0600)
Palestine Municipal

Weather History for KPSN - November, 2012

Change the Weather History Date:

Saturday, November 24, 2012

  Actual Average (KTYR) Record (KTYR)
Temperature  
Mean Temperature 46 °F -  
Max Temperature 59 °F 62 °F 85 °F (1910)
Min Temperature 32 °F 43 °F 22 °F (1970)
Degree Days  
Heating Degree Days 20    
Moisture  
Dew Point 27 °F    
Average Humidity 50    
Maximum Humidity 81    
Minimum Humidity 25    
Precipitation  
Precipitation 0.00 in - - ()
Sea Level Pressure  
Sea Level Pressure 30.32 in    
Wind  
Wind Speed 4 mph (NNE)    
Max Wind Speed 10 mph    
Max Gust Speed -    
Visibility 10 miles    
Events      
Averages and records for this station are not official NWS values.
T = Trace of Precipitation, MM = Missing Value Source: NWS Daily Summary

Daily Weather History Graph

Daily Weather History Graph

Search for Another Location

Airport or City:

Trip Planner

Search our weather history database for the weather conditions in past years. The results will help you decide how hot, cold, wet, or windy it might be!

Date:

Astronomy

Nov. 24, 2012 Rise Set
Actual Time 6:59 AM CST 5:19 PM CST
Civil Twilight 6:33 AM CST 5:45 PM CST
Nautical Twilight 6:03 AM CST 6:15 PM CST
Astronomical Twilight 5:34 AM CST 6:45 PM CST
Moon 2:56 PM CST (11/24) 3:27 AM CST (11/24)
Length of Visible Light 11h 12m
Length of Day
10h 20m
Waxing Gibbous, 87% of the Moon is Illuminated
Nov 24
Waxing Gibbous
Nov 28
Full
Dec 6
Last Quarter
Dec 13
New
Dec 19
First Quarter

Hourly Weather History & Observations

Time (CST) Temp. Windchill Dew Point Humidity Pressure Visibility Wind Dir Wind Speed Gust Speed Precip Events Conditions
12:15 AM 41.9 °F 36.9 °F 27.5 °F 57% 30.41 in 10.0 mi North 8.1 mph - N/A   Clear
12:35 AM 41.2 °F 37.3 °F 27.5 °F 58% 30.41 in 10.0 mi North 5.8 mph - N/A   Clear
12:55 AM 41.7 °F 36.7 °F 27.3 °F 57% 30.41 in 10.0 mi North 8.1 mph - N/A   Clear
1:15 AM 41.7 °F 37.3 °F 26.8 °F 55% 30.41 in 10.0 mi North 6.9 mph - N/A   Clear
1:35 AM 43.3 °F 37.7 °F 26.4 °F 51% 30.41 in 10.0 mi North 10.4 mph - N/A   Clear
2:15 AM 43.9 °F 38.8 °F 24.3 °F 46% 30.41 in 10.0 mi North 9.2 mph - N/A   Clear
2:35 AM 42.3 °F 37.3 °F 24.4 °F 49% 30.41 in 10.0 mi North 8.1 mph - N/A   Clear
2:55 AM 40.3 °F 34.9 °F 24.6 °F 54% 30.41 in 10.0 mi North 8.1 mph - N/A   Clear
3:15 AM 39.2 °F 35.0 °F 24.8 °F 56% 30.41 in 10.0 mi NNW 5.8 mph - N/A   Clear
3:55 AM 37.8 °F 32.5 °F 24.8 °F 60% 30.41 in 10.0 mi NNW 6.9 mph - N/A   Clear
4:15 AM 36.7 °F 32.0 °F 25.3 °F 64% 30.40 in 10.0 mi NNW 5.8 mph - N/A   Clear
4:35 AM 35.8 °F 30.9 °F 25.0 °F 65% 30.40 in 10.0 mi NNW 5.8 mph - N/A   Clear
4:55 AM 34.9 °F 28.3 °F 25.2 °F 68% 30.40 in 10.0 mi North 8.1 mph - N/A   Clear
5:15 AM 35.1 °F 29.3 °F 25.2 °F 67% 30.40 in 10.0 mi North 6.9 mph - N/A   Clear
5:35 AM 34.7 °F 30.6 °F 24.6 °F 67% 30.40 in 10.0 mi North 4.6 mph - N/A   Clear
5:55 AM 36.0 °F 32.1 °F 24.6 °F 63% 30.41 in 10.0 mi North 4.6 mph - N/A   Clear
6:15 AM 36.5 °F 33.9 °F 23.9 °F 60% 30.41 in 10.0 mi North 3.5 mph - N/A   Clear
6:35 AM 37.0 °F - 23.9 °F 59% 30.42 in 10.0 mi Calm Calm - N/A   Clear
6:55 AM 35.4 °F - 23.9 °F 63% 30.43 in 10.0 mi Calm Calm - N/A   Clear
7:15 AM 33.8 °F 30.8 °F 25.2 °F 71% 30.43 in 10.0 mi West 3.5 mph - N/A   Clear
7:35 AM 32.5 °F 29.3 °F 25.7 °F 76% 30.43 in 10.0 mi WNW 3.5 mph - N/A   Clear
7:55 AM 33.8 °F - 28.4 °F 81% 30.43 in 10.0 mi Calm Calm - N/A   Clear
8:15 AM 37.2 °F - 27.1 °F 67% 30.43 in 10.0 mi Calm Calm - N/A   Clear
8:35 AM 39.6 °F - 27.3 °F 62% 30.44 in 10.0 mi Calm Calm - N/A   Clear
8:55 AM 43.5 °F 41.9 °F 25.9 °F 50% 30.44 in 10.0 mi NNE 3.5 mph - N/A   Clear
9:15 AM 45.5 °F 40.8 °F 23.9 °F 43% 30.44 in 10.0 mi NE 9.2 mph - N/A   Clear
9:35 AM 46.2 °F 41.7 °F 23.0 °F 40% 30.44 in 10.0 mi NE 9.2 mph - N/A   Clear
9:55 AM 46.9 °F - 23.7 °F 40% 30.43 in 10.0 mi NE 5.8 mph - N/A   Clear
10:15 AM 47.5 °F - 23.7 °F 39% 30.42 in 10.0 mi East 5.8 mph - N/A   Clear
10:35 AM 48.7 °F - 23.5 °F 37% 30.42 in 10.0 mi Calm Calm - N/A   Clear
10:55 AM 50.0 °F - 24.8 °F 37% 30.41 in 10.0 mi Calm Calm - N/A   Clear
11:15 AM 51.6 °F - 25.0 °F 36% 30.40 in 10.0 mi ESE 4.6 mph - N/A   Clear
11:35 AM 52.5 °F - 25.2 °F 35% 30.39 in 10.0 mi Calm Calm - N/A   Clear
11:55 AM 52.5 °F - 23.9 °F 33% 30.37 in 10.0 mi Calm Calm - N/A   Clear
12:15 PM 52.9 °F - 23.7 °F 32% 30.35 in 10.0 mi Calm Calm - N/A   Clear
12:35 PM 54.9 °F - 24.1 °F 30% 30.34 in 10.0 mi WNW 3.5 mph - N/A   Clear
12:55 PM 55.6 °F - 24.8 °F 30% 30.32 in 10.0 mi SSE 3.5 mph - N/A   Clear
1:15 PM 56.1 °F - 24.8 °F 30% 30.31 in 10.0 mi West 3.5 mph - N/A   Clear
1:35 PM 56.7 °F - 23.9 °F 28% 30.30 in 10.0 mi Calm Calm - N/A   Clear
1:55 PM 57.4 °F - 23.4 °F 27% 30.29 in 10.0 mi Calm Calm - N/A   Clear
2:15 PM 57.9 °F - 23.5 °F 27% 30.28 in 10.0 mi Calm Calm - N/A   Clear
2:35 PM 58.3 °F - 24.3 °F 27% 30.27 in 10.0 mi Calm Calm - N/A   Clear
2:55 PM 58.8 °F - 23.5 °F 26% 30.26 in 10.0 mi Calm Calm - N/A   Clear
3:15 PM 59.0 °F - 23.9 °F 26% 30.26 in 10.0 mi Calm Calm - N/A   Clear
3:35 PM 59.5 °F - 23.9 °F 25% 30.25 in 10.0 mi Calm Calm - N/A   Clear
3:55 PM 59.0 °F - 24.1 °F 26% 30.25 in 10.0 mi Calm Calm - N/A   Clear
4:15 PM 59.2 °F - 23.7 °F 26% 30.24 in 10.0 mi Calm Calm - N/A   Clear
4:35 PM 58.6 °F - 23.5 °F 26% 30.24 in 10.0 mi Calm Calm - N/A   Clear
4:55 PM 57.7 °F - 24.1 °F 27% 30.23 in 10.0 mi Calm Calm - N/A   Clear
5:15 PM 57.0 °F - 24.8 °F 29% 30.23 in 10.0 mi Calm Calm - N/A   Clear
5:35 PM 51.4 °F - 31.1 °F 46% 30.23 in 10.0 mi Calm Calm - N/A   Clear
5:55 PM 49.3 °F - 28.8 °F 45% 30.23 in 10.0 mi Calm Calm - N/A   Clear
6:15 PM 46.4 °F - 33.1 °F 60% 30.23 in 10.0 mi Calm Calm - N/A   Clear
6:35 PM 45.3 °F - 31.8 °F 59% 30.23 in 10.0 mi Calm Calm - N/A   Clear
6:55 PM 43.5 °F - 32.0 °F 64% 30.23 in 10.0 mi Calm Calm - N/A   Clear
7:15 PM 43.0 °F 41.3 °F 31.8 °F 65% 30.22 in 10.0 mi SE 3.5 mph - N/A   Clear
7:35 PM 42.6 °F - 31.3 °F 64% 30.22 in 10.0 mi Calm Calm - N/A   Clear
7:55 PM 42.1 °F - 31.6 °F 67% 30.22 in 10.0 mi Calm Calm - N/A   Clear
8:15 PM 42.6 °F 40.9 °F 30.9 °F 63% 30.22 in 10.0 mi ESE 3.5 mph - N/A   Clear
8:35 PM 41.7 °F 39.8 °F 31.8 °F 68% 30.21 in 10.0 mi ESE 3.5 mph - N/A   Clear
8:55 PM 44.4 °F 42.9 °F 29.8 °F 57% 30.21 in 10.0 mi ESE 3.5 mph - N/A   Clear
9:15 PM 42.8 °F 41.1 °F 31.1 °F 63% 30.21 in 10.0 mi SE 3.5 mph - N/A   Clear
9:35 PM 43.5 °F 41.9 °F 30.4 °F 60% 30.20 in 10.0 mi SE 3.5 mph - N/A   Clear
9:55 PM 43.5 °F 40.9 °F 30.4 °F 60% 30.20 in 10.0 mi ESE 4.6 mph - N/A   Clear
10:15 PM 43.7 °F 42.1 °F 30.2 °F 59% 30.19 in 10.0 mi SE 3.5 mph - N/A   Clear
10:35 PM 44.1 °F 42.5 °F 30.2 °F 58% 30.19 in 10.0 mi SE 3.5 mph - N/A   Clear
10:55 PM 43.7 °F - 30.2 °F 59% 30.18 in 10.0 mi Calm Calm - N/A   Clear
11:15 PM 42.8 °F 41.1 °F 30.2 °F 61% 30.18 in 10.0 mi SE 3.5 mph - N/A   Clear
11:35 PM 43.7 °F 42.1 °F 30.0 °F 59% 30.18 in 10.0 mi SE 3.5 mph - N/A   Clear
11:55 PM 43.7 °F - 30.0 °F 59% 30.18 in 10.0 mi Calm Calm - N/A   Clear